星链-32827 (STARLINK-32827)

导读

STARLINK-32827是美国SpaceX公司星链(Starlink)卫星互联网项目的一颗卫星,于2025年2月18日由美国发射升空。星链计划旨在构建近地轨道卫星星座,为全球偏远地区提供低延迟高速宽带互联网服务,该卫星属于星链大规模组网部署中的一员,加入已经成型的全球卫星互联网网络,助力星链服务覆盖范围及服务能力进一步扩展,目前星链已在全球60多个国家和地区提供服务,用户规模突破500万。

Basic Information
目录编号:
63043
目录名称:
STARLINK-32827
国际标识:
2025-034Q
轨道中心:
EARTH
卫星名称:
星链-32827
卫星全名:
星链-32827 (STARLINK-32827)
卫星状态:
在轨 (已飞行481 天)
发射日期:
2025-02-18 UTC
国别 :
美国 (US)
星等 :
--
Orbit Information
数据来源 国际轨道数据 AOE轨道数据
星历时间 2026-06-14T02:46:59+0800
16小时前
查看轨道信息
2026-06-14T02:00:00+0800
17小时前
查看轨道信息
半长轴 6840.843km 6840.825km
偏心率 0.0001164 0.0001425
轨道倾角 53.158° 53.154°
近地点辐角 65.650° 27.416°
升交点赤经 183.535° 183.688°
平近点角 294.463° 152.395°
近地点 461.909km 461.713km
远地点 463.503km 463.663km
周期 93.848分钟 93.847分钟
每日圈数 15.343993 15.344052
Detailed Information
固有亮度:
5
最大亮度:
2.5
卫星平台:
Starlink V1.0
覆盖范围:
全球
运营商:
太空探索技术公司
运营商所在国:
美国
制造商(研发单位):
太空探索技术公司
制造商所在国:
美国
使用方式:
暂无
Satellite Introduction
Starlink 计划是 SpaceX 推出的全球卫星互联网项目,通过发射低轨道卫星,为全球尤其是偏远地区提供高速、低延迟的互联网服务。自 2019 年起,Starlink 已部署数千颗卫星,旨在缩小全球数字鸿沟,推动互联网普及。该项目还为军事、航空等行业提供通信支持,带来广泛经济效益。
2D Orbit Map
3D Orbit Map
Orbit Altitude Analysis Chart
Orbit Inclination Analysis Chart
Orbit Comprehensive Analysis Chart
View Comprehensive Chart